{"data":{"norad_id":47933,"epoch":"2026-05-25T05:24:20.652192Z","epoch_age_seconds":55502,"freshness":"FRESH","line1":"1 47933U 21022B   26145.22523903  .00001842  00000+0  15667-3 0  9999","line2":"2 47933  97.5399  29.0929 0015066  44.9136 315.3304 14.98934283282468","mean_motion":14.98934283,"eccentricity":0.0015066,"inclination_deg":97.5399,"raan_deg":29.0929,"arg_perigee_deg":44.9136,"mean_anomaly_deg":315.3304,"bstar":0.00015667,"rev_number":28246,"period_min":96.068254381236,"perigee_km":559.71947725448,"apogee_km":580.65616961245,"semimajor_km":6948.3248234335,"source":"CELESTRAK","updated_at":"2026-05-25T13:37:56.626016Z"}}